Weather History for LTAU - July, 2014

Change the Weather History Date:

Wednesday, July 30, 2014

  Actual Average Record
Temperature  
Mean Temperature 78 °F -  
Max Temperature 94 °F 85 °F 104 °F (2000)
Min Temperature 63 °F 54 °F 46 °F (1996)
Cooling Degree Days 14    
Growing Degree Days 28 (Base 50)    
Moisture  
Dew Point 47 °F    
Average Humidity 33    
Maximum Humidity 60    
Minimum Humidity 9    
Precipitation  
Precipitation 0.00 in - - ()
Sea Level Pressure  
Sea Level Pressure 29.88 in    
Wind  
Wind Speed 5 mph ()    
Max Wind Speed 13 mph    
Max Gust Speed -    
Visibility 7.4 miles    
Events      
Averages and records for this station are not official NWS values.
T = Trace of Precipitation, MM = Missing Value Source: Averaged Metar Reports

Daily Weather History Graph

Daily Weather History Graph

Search for Another Location

Airport or City:

Trip Planner

Search our weather history database for the weather conditions in past years. The results will help you decide how hot, cold, wet, or windy it might be!

Date:

Astronomy

Jul. 30, 2014 Rise Set
Actual Time 5:37 AM EEST 7:51 PM EEST
Civil Twilight 5:07 AM EEST 8:20 PM EEST
Nautical Twilight 4:30 AM EEST 8:57 PM EEST
Astronomical Twilight 3:50 AM EEST 9:37 PM EEST
Moon 8:47 AM EEST (7/30) 9:26 PM EEST (7/30)
Length of Visible Light 15h 13m
Length of Day
14h 13m
Waxing Crescent, 10% of the Moon is Illuminated
Jul 30
Waxing Crescent
Aug 4
First Quarter
Aug 10
Full
Aug 17
Last Quarter
Aug 25
New

Hourly Weather History & Observations

Time (EEST) Temp. Dew Point Humidity Pressure Visibility Wind Dir Wind Speed Gust Speed Precip Events Conditions
12:00 AM 70 °F 47 °F 33%  in 12 mi NNE 4.6 mph - -  
12:20 AM 66.2 °F 48.2 °F 52% 29.89 in - NE 4.6 mph - N/A   Clear
12:50 AM 71.6 °F 46.4 °F 41% 29.89 in - NE 6.9 mph - N/A   Clear
1:20 AM 71.6 °F 46.4 °F 41% 29.89 in - ENE 5.8 mph - N/A   Clear
1:50 AM 73.4 °F 46.4 °F 38% 29.89 in - ENE 10.4 mph - N/A   Clear
2:20 AM 73.4 °F 48.2 °F 41% 29.89 in - ENE 10.4 mph - N/A   Clear
2:50 AM 69.8 °F 48.2 °F 46% 29.89 in - ENE 6.9 mph - N/A   Clear
3:00 AM 71 °F 48 °F 33%  in 12 mi ENE 6.9 mph - -  
3:20 AM 69.8 °F 50.0 °F 49% 29.89 in - NNE 5.8 mph - N/A   Clear
3:50 AM 68.0 °F 50.0 °F 52% 29.89 in - ENE 6.9 mph - N/A   Clear
4:20 AM 66.2 °F 50.0 °F 56% 29.89 in - ENE 6.9 mph - N/A   Clear
4:50 AM 68.0 °F 50.0 °F 52% 29.89 in - NE 8.1 mph - N/A   Clear
5:20 AM 68.0 °F 50.0 °F 52% 29.89 in - ENE 5.8 mph - N/A   Clear
5:50 AM 66.2 °F 51.8 °F 60% 29.89 in 6.2 mi NNE 6.9 mph - N/A   Partly Cloudy
6:00 AM 66 °F 51 °F 48%  in 12 mi NNE 6.9 mph - -   Scattered Clouds
6:20 AM 68.0 °F 51.8 °F 56% 29.89 in 6.2 mi NNE 9.2 mph - N/A   Partly Cloudy
6:50 AM 68.0 °F 51.8 °F 56% 29.89 in 6.2 mi NNE 8.1 mph - N/A   Partly Cloudy
7:20 AM 69.8 °F 53.6 °F 56% 29.89 in 6.2 mi NNE 8.1 mph - N/A   Partly Cloudy
7:50 AM 71.6 °F 53.6 °F 53% 29.92 in 6.2 mi NNE 5.8 mph - N/A   Partly Cloudy
8:20 AM 73.4 °F 53.6 °F 50% 29.92 in 6.2 mi North 5.8 mph - N/A   Scattered Clouds
8:50 AM 77.0 °F 53.6 °F 44% 29.92 in 6.2 mi NNE 4.6 mph - N/A   Scattered Clouds
9:00 AM 78 °F 50 °F 27%  in 12 mi NNE 4.6 mph - -   Partly Cloudy
9:20 AM 80.6 °F 48.2 °F 32% 29.92 in 6.2 mi NE 4.6 mph - N/A   Scattered Clouds
9:50 AM 82.4 °F 50.0 °F 32% 29.92 in 6.2 mi Variable 2.3 mph - N/A   Scattered Clouds
10:20 AM 84.2 °F 48.2 °F 29% 29.92 in 6.2 mi NNE 4.6 mph - N/A   Partly Cloudy
10:50 AM 87.8 °F 48.2 °F 25% 29.89 in 6.2 mi ESE 1.2 mph - N/A   Partly Cloudy
11:20 AM 87.8 °F 46.4 °F 24% 29.89 in 6.2 mi Variable 2.3 mph - N/A   Partly Cloudy
11:50 AM 87.8 °F 46.4 °F 24% 29.89 in 6.2 mi North 3.5 mph - N/A   Partly Cloudy
12:00 PM 89 °F 46 °F 13%  in 12 mi North 3.5 mph - -   Scattered Clouds
12:20 PM 91.4 °F 44.6 °F 20% 29.89 in 6.2 mi Variable 2.3 mph - N/A   Scattered Clouds
12:50 PM 91.4 °F 42.8 °F 18% 29.89 in 6.2 mi Variable 3.5 mph - N/A   Scattered Clouds
1:20 PM 89.6 °F 41.0 °F 18% 29.86 in 6.2 mi ESE 4.6 mph - N/A   Scattered Clouds
1:50 PM 91.4 °F 37.4 °F 15% 29.86 in 6.2 mi Variable 4.6 mph - N/A   Scattered Clouds
2:20 PM 91.4 °F 37.4 °F 15% 29.86 in 6.2 mi Variable 8.1 mph - N/A   Scattered Clouds
2:50 PM 91.4 °F 41.0 °F 17% 29.86 in 6.2 mi North 3.5 mph - N/A   Scattered Clouds
3:00 PM 91 °F 40 °F 9%  in 12 mi North 3.5 mph - -   Partly Cloudy
3:20 PM 93.2 °F 39.2 °F 15% 29.86 in 6.2 mi Variable 3.5 mph - N/A   Scattered Clouds
3:50 PM 91.4 °F 41.0 °F 17% 29.86 in 6.2 mi WNW 6.9 mph - N/A   Mostly Cloudy
4:20 PM 91.4 °F 41.0 °F 17% 29.86 in 6.2 mi West 9.2 mph - N/A   Mostly Cloudy
4:50 PM 93.2 °F 41.0 °F 16% 29.86 in 6.2 mi NNW 12.7 mph - N/A   Scattered Clouds
5:20 PM 91.4 °F 41.0 °F 17% 29.83 in 6.2 mi NNW 9.2 mph - N/A   Scattered Clouds
5:50 PM 89.6 °F 42.8 °F 20% 29.83 in 6.2 mi NNW 11.5 mph - N/A   Scattered Clouds
6:00 PM 90 °F 41 °F 10%  in 12 mi NNW 11.5 mph - -   Partly Cloudy
6:20 PM 91.4 °F 44.6 °F 20% 29.83 in 6.2 mi NNW 6.9 mph - N/A   Scattered Clouds
6:50 PM 89.6 °F 42.8 °F 20% 29.83 in 6.2 mi NNW 8.1 mph - N/A   Scattered Clouds
7:20 PM 87.8 °F 42.8 °F 21% 29.83 in 6.2 mi NNW 8.1 mph - N/A   Scattered Clouds
7:50 PM 84.2 °F 42.8 °F 23% 29.86 in 6.2 mi NNW 3.5 mph - N/A   Scattered Clouds
8:20 PM 77.0 °F 50.0 °F 39% 29.86 in 6.2 mi Calm Calm - N/A   Scattered Clouds
8:50 PM 75.2 °F 50.0 °F 41% 29.86 in 6.2 mi Calm Calm - N/A   Partly Cloudy
9:00 PM 75 °F 49 °F 29%  in 12 mi Calm Calm - -   Scattered Clouds
9:20 PM 73.4 °F 48.2 °F 41% 29.86 in - Variable 1.2 mph - N/A   Clear
9:50 PM 73.4 °F 50.0 °F 44% 29.86 in - Variable 2.3 mph - N/A   Clear
10:20 PM 77.0 °F 44.6 °F 32% 29.89 in - NE 6.9 mph - N/A   Clear
10:50 PM 75.2 °F 48.2 °F 38% 29.89 in - NNE 4.6 mph - N/A   Clear
11:20 PM 75.2 °F 51.8 °F 44% 29.89 in - NNE 6.9 mph - N/A   Clear
11:50 PM 75.2 °F 51.8 °F 44% 29.92 in - NNE 4.6 mph - N/A   Clear